CZ-4B R/B, 43656

Orbit data source: Space-Track

CZ-4B R/B, 43656 is space debris in SSO originally from a launch on Wed, 24 Oct 2018 UTC via a CHANG ZHENG 4B launch vehicle from the Taiyaun Space Center, China (TSC). Debris objects in space refer to the collection of defunct objects orbiting the Earth. Examples of debris include non-operational satellites, rocket bodies, and fragments generated from explosions, collisions, or faulty payload assembly.

Loading next visibility...
Identifier
43656, 2018-081B
Orbit
SSO
Country
Flag of CNCN / PRC
Related business
Flag of CNAliExpress, Alibaba Group (CN)
Manufacturer
SAST?
Mission
Spacecraft
Bus & Motor
Unknown
Mass
1,020 kg wet, 20 kg dry
Launch date (UTC)
2018-10-24 (7 years ago)
Launch vehicle
CHANG ZHENG 4B
Launch site
Taiyaun Space Center, China (TSC)
Object type
Payload
Rocket body
Debris
Shape & HBR
Unknown
Radar Cross Section
Large (>1 m²)

Expand to show TLE details & history
Last TLE update: 15 hours ago

TLE from 15 hours ago
0 CZ-4B R/B
1 43656U 18081B   26037.16124037  .00000395  00000-0  13563-3 0  9992
2 43656  99.3740 304.6261 0203984 284.2760  73.5846 14.31806755380559
Epoch: 2026-02-06T03:52Z
TLE epoch observation values (Epoch: 2026-02-06T03:52:11.167Z)
Latitude
-0.00009°
Longitude
110.2765°
Altitude
750.07 km
Speed
7.5 km/s
True Right ascension
20h 18m 30s
True Declination
0° 00' 00"
Sunlit
Object was in daylight at epoch
Visualization orbit readout
Latitude
Unknown
Longitude
Unknown
Altitude
Unknown
Speed
Unknown
Apparent Right ascension
Unknown
Apparent Declination
Unknown
Sunlit
N/A
Visualization observer readout
Local Sidereal Time
20:38:58
Azimuth
Unknown
Elevation
Unknown
Doppler factor
Unknown
Orbital elements
Apogee altitude
928.945 km
Perigee altitude
636.799 km
Semi-major axis
7,161.009 km
Eccentricity
0.0204
Inclination
99.374°
RAAN
304.6261°
Arg. of periapsis
284.276°
True anomaly
75.84249°
Mean anomaly
73.5846°
Eccentric anomaly
74.71198°
Mean motion
3.58164 °/min
Orbital period
100.51 mins
BSTAR
0.00013563
Loading maneuver chart data...
Computing Atmospheric mass density...
Loading historical data...
Loading historical data...
Loading historical data...
Loading historical data...
Loading historical data...
Loading historical data...
Loading historical data...

Documentation

Showing up to 5 results
|